�������l�o���
Date,Time,MP-1(��Sv/h),MP-2(��Sv/h),MP-3(��Sv/h),MP-4(��Sv/h),MP-5(��Sv/h),MP-6(��Sv/h),MP-7(��Sv/h),MP-8(��Sv/h),����,����(m/s),���J
2024/06/03,00:00,0.476,0.727,0.466,0.896,0.652,0.309,0.533,0.496,�k�k��,6.0,��
2024/06/03,00:10,0.478,0.728,0.467,0.897,0.653,0.308,0.533,0.497,�k�k��,6.1,��
2024/06/03,00:20,0.479,0.727,0.466,0.897,0.653,0.308,0.533,0.498,�k�k��,6.5,��
2024/06/03,00:30,0.476,0.729,0.466,0.896,0.655,0.307,0.532,0.498,�k�k��,6.0,��
2024/06/03,00:40,0.476,0.727,0.465,0.894,0.652,0.308,0.535,0.497,�k�k��,6.3,��
2024/06/03,00:50,0.477,0.728,0.465,0.896,0.653,0.307,0.533,0.498,�k�k��,5.6,��
2024/06/03,01:00,0.475,0.728,0.465,0.896,0.655,0.307,0.534,0.498,�k,5.9,��
2024/06/03,01:10,0.476,0.729,0.464,0.895,0.653,0.306,0.534,0.499,�k,6.3,��
2024/06/03,01:20,0.475,0.729,0.464,0.896,0.654,0.307,0.533,0.498,�k,6.2,��
2024/06/03,01:30,0.476,0.728,0.465,0.896,0.654,0.306,0.534,0.498,�k,6.4,��
2024/06/03,01:40,0.476,0.727,0.465,0.898,0.654,0.307,0.536,0.499,�k�k��,7.8,�L
2024/06/03,01:50,0.476,0.729,0.465,0.898,0.655,0.308,0.534,0.499,�k�k��,6.6,�L
2024/06/03,02:00,0.475,0.728,0.464,0.898,0.652,0.306,0.534,0.498,�k�k��,7.5,�L
2024/06/03,02:10,0.476,0.729,0.465,0.896,0.656,0.305,0.534,0.499,�k�k��,5.9,��
2024/06/03,02:20,0.477,0.728,0.464,0.897,0.655,0.308,0.533,0.498,�k�k��,7.2,��
2024/06/03,02:30,0.477,0.728,0.466,0.897,0.655,0.306,0.535,0.499,�k�k��,6.7,��
2024/06/03,02:40,0.477,0.729,0.464,0.896,0.654,0.308,0.534,0.500,�k�k��,7.6,��
2024/06/03,02:50,0.476,0.729,0.465,0.896,0.655,0.307,0.536,0.499,�k�k��,7.7,��
2024/06/03,03:00,0.476,0.728,0.465,0.897,0.655,0.306,0.534,0.499,�k�k��,7.1,��
2024/06/03,03:10,0.475,0.728,0.464,0.897,0.655,0.305,0.534,0.498,�k�k��,8.2,��
2024/06/03,03:20,0.476,0.727,0.465,0.898,0.655,0.308,0.534,0.499,�k�k��,8.5,��
2024/06/03,03:30,0.478,0.729,0.465,0.896,0.656,0.306,0.534,0.499,�k�k��,7.6,��
2024/06/03,03:40,0.477,0.730,0.467,0.896,0.657,0.307,0.533,0.498,�k�k��,8.1,��
2024/06/03,03:50,0.477,0.731,0.465,0.897,0.655,0.305,0.535,0.499,�k�k��,8.3,��
2024/06/03,04:00,0.477,0.731,0.464,0.899,0.656,0.307,0.533,0.499,�k�k��,7.7,��
2024/06/03,04:10,0.477,0.727,0.466,0.897,0.654,0.307,0.535,0.500,�k�k��,8.3,��
2024/06/03,04:20,0.476,0.729,0.464,0.898,0.656,0.307,0.532,0.499,�k�k��,7.0,��
2024/06/03,04:30,0.477,0.728,0.465,0.898,0.654,0.307,0.534,0.499,�k�k��,7.0,��
2024/06/03,04:40,0.476,0.731,0.466,0.897,0.656,0.308,0.534,0.499,�k�k��,6.8,��
2024/06/03,04:50,0.477,0.729,0.464,0.897,0.656,0.307,0.533,0.500,�k�k��,6.6,��
2024/06/03,05:00,0.476,0.731,0.466,0.898,0.655,0.306,0.533,0.499,�k�k��,6.5,��
2024/06/03,05:10,0.477,0.729,0.465,0.899,0.657,0.307,0.535,0.500,�k�k��,5.9,��
2024/06/03,05:20,0.476,0.729,0.465,0.899,0.656,0.307,0.535,0.499,�k�k��,5.3,��
2024/06/03,05:30,0.476,0.729,0.466,0.899,0.655,0.306,0.534,0.500,�k�k��,5.3,��
2024/06/03,05:40,0.478,0.731,0.464,0.899,0.656,0.307,0.535,0.501,�k�k��,6.2,��
2024/06/03,05:50,0.477,0.734,0.465,0.899,0.655,0.308,0.536,0.499,�k�k��,5.6,��
2024/06/03,06:00,0.477,0.731,0.468,0.899,0.656,0.308,0.534,0.501,�k�k��,6.1,��
2024/06/03,06:10,0.478,0.730,0.467,0.897,0.657,0.307,0.535,0.501,�k�k��,7.1,��
2024/06/03,06:20,0.477,0.730,0.466,0.897,0.656,0.306,0.535,0.500,�k�k��,8.0,��
2024/06/03,06:30,0.478,0.730,0.465,0.900,0.657,0.306,0.534,0.500,�k�k��,7.5,��
2024/06/03,06:40,0.477,0.728,0.467,0.900,0.656,0.307,0.536,0.500,�k�k��,7.2,��
2024/06/03,06:50,0.476,0.730,0.466,0.899,0.655,0.305,0.535,0.500,�k�k��,5.6,��
2024/06/03,07:00,0.477,0.728,0.466,0.900,0.657,0.307,0.535,0.500,�k�k��,6.6,��
2024/06/03,07:10,0.478,0.729,0.466,0.901,0.657,0.306,0.535,0.499,�k�k��,7.1,��
2024/06/03,07:20,0.475,0.725,0.467,0.900,0.656,0.305,0.535,0.499,�k�k��,7.2,��
2024/06/03,07:30,0.475,0.729,0.464,0.902,0.654,0.305,0.535,0.500,�k�k��,6.9,��
2024/06/03,07:40,0.477,0.729,0.464,0.900,0.655,0.305,0.535,0.499,�k�k��,7.6,��
2024/06/03,07:50,0.476,0.729,0.464,0.901,0.654,0.305,0.533,0.497,�k�k��,7.3,�L
2024/06/03,08:00,0.475,0.730,0.464,0.900,0.655,0.305,0.534,0.498,�k�k��,7.4,�L
2024/06/03,08:10,0.477,0.728,0.464,0.900,0.654,0.305,0.536,0.498,�k�k��,6.2,��
2024/06/03,08:20,0.476,0.731,0.465,0.900,0.655,0.305,0.534,0.498,�k�k��,6.7,��
2024/06/03,08:30,0.478,0.730,0.465,0.902,0.653,0.302,0.535,0.499,�k�k��,6.8,��
2024/06/03,08:40,0.478,0.729,0.466,0.901,0.657,0.306,0.535,0.499,�k�k��,6.2,��
2024/06/03,08:50,0.478,0.732,0.467,0.902,0.656,0.307,0.534,0.499,�k�k��,6.7,��
2024/06/03,09:00,0.478,0.732,0.469,0.903,0.656,0.306,0.535,0.500,�k�k��,7.4,��
2024/06/03,09:10,0.478,0.732,0.466,0.903,0.657,0.307,0.535,0.499,�k�k��,8.2,��
2024/06/03,09:20,0.477,0.732,0.466,0.901,0.657,0.306,0.534,0.499,�k�k��,8.6,��
2024/06/03,09:30,0.478,0.732,0.467,0.904,0.656,0.307,0.536,0.498,�k�k��,9.0,��
2024/06/03,09:40,0.477,0.732,0.469,0.904,0.657,0.305,0.536,0.499,�k�k��,8.9,��
2024/06/03,09:50,0.478,0.731,0.466,0.901,0.657,0.306,0.536,0.498,�k�k��,8.2,��
2024/06/03,10:00,0.478,0.732,0.467,0.903,0.656,0.306,0.535,0.500,�k�k��,9.0,��
2024/06/03,10:10,0.479,0.732,0.467,0.902,0.658,0.307,0.536,0.501,�k�k��,8.7,��
2024/06/03,10:20,0.481,0.731,0.467,0.904,0.657,0.305,0.535,0.498,�k�k��,7.2,��
2024/06/03,10:30,0.480,0.735,0.467,0.903,0.659,0.307,0.537,0.499,�k�k��,7.4,��
2024/06/03,10:40,0.480,0.733,0.469,0.903,0.658,0.307,0.535,0.498,�k�k��,7.9,��
2024/06/03,10:50,0.479,0.733,0.468,0.903,0.659,0.307,0.535,0.500,�k�k��,7.1,��
2024/06/03,11:00,0.481,0.734,0.467,0.904,0.656,0.307,0.536,0.499,�k�k��,6.4,��
2024/06/03,11:10,0.483,0.733,0.467,0.904,0.660,0.308,0.537,0.499,�k�k��,6.7,��
2024/06/03,11:20,0.481,0.736,0.469,0.902,0.658,0.307,0.536,0.500,�k�k��,7.4,��
2024/06/03,11:30,0.481,0.736,0.468,0.905,0.661,0.308,0.536,0.501,�k�k��,6.7,��
2024/06/03,11:40,0.482,0.737,0.469,0.903,0.661,0.306,0.536,0.500,�k�k��,6.9,��
2024/06/03,11:50,0.482,0.737,0.470,0.903,0.660,0.308,0.538,0.500,�k�k��,6.7,��
2024/06/03,12:00,0.482,0.737,0.469,0.901,0.660,0.307,0.537,0.501,�k,7.8,��
2024/06/03,12:10,0.482,0.739,0.471,0.902,0.661,0.308,0.538,0.499,�k,9.0,��
2024/06/03,12:20,0.481,0.740,0.472,0.904,0.661,0.308,0.538,0.501,�k,8.7,��
2024/06/03,12:30,0.482,0.741,0.471,0.904,0.663,0.308,0.538,0.502,�k,8.2,��
2024/06/03,12:40,0.483,0.739,0.472,0.904,0.661,0.308,0.538,0.501,�k,8.7,��
2024/06/03,12:50,0.484,0.738,0.471,0.903,0.662,0.308,0.537,0.501,�k,8.5,��
2024/06/03,13:00,0.484,0.741,0.471,0.903,0.662,0.308,0.538,0.500,�k�k��,8.7,��
2024/06/03,13:10,0.484,0.740,0.472,0.906,0.663,0.307,0.539,0.499,�k,9.5,��
2024/06/03,13:20,0.482,0.740,0.472,0.906,0.663,0.309,0.538,0.500,�k�k��,7.6,��
2024/06/03,13:30,0.484,0.738,0.472,0.905,0.663,0.309,0.539,0.502,�k�k��,7.6,��
2024/06/03,13:40,0.485,0.738,0.473,0.908,0.664,0.309,0.538,0.500,�k,7.5,��
2024/06/03,13:50,0.483,0.739,0.472,0.908,0.663,0.309,0.538,0.502,�k,9.6,��
2024/06/03,14:00,0.484,0.740,0.473,0.905,0.663,0.309,0.539,0.500,�k,9.4,��
2024/06/03,14:10,0.485,0.741,0.472,0.908,0.666,0.309,0.538,0.503,�k,9.0,��
2024/06/03,14:20,0.484,0.740,0.474,0.907,0.666,0.309,0.538,0.501,�k,8.6,��
2024/06/03,14:30,0.483,0.740,0.474,0.907,0.666,0.308,0.539,0.501,�k,9.3,��
2024/06/03,14:40,0.485,0.742,0.472,0.910,0.665,0.309,0.538,0.504,�k,9.2,��
2024/06/03,14:50,0.484,0.742,0.473,0.909,0.666,0.308,0.538,0.502,�k,9.2,��
2024/06/03,15:00,0.483,0.740,0.472,0.909,0.666,0.309,0.539,0.502,�k,9.3,��
2024/06/03,15:10,0.483,0.743,0.474,0.909,0.666,0.309,0.539,0.503,�k,10.3,��
2024/06/03,15:20,0.484,0.741,0.475,0.909,0.667,0.309,0.540,0.502,�k,10.5,��
2024/06/03,15:30,0.485,0.742,0.472,0.910,0.665,0.308,0.539,0.503,�k,11.0,��
2024/06/03,15:40,0.484,0.745,0.473,0.911,0.666,0.308,0.540,0.501,�k,11.7,��
2024/06/03,15:50,0.485,0.744,0.472,0.910,0.665,0.308,0.538,0.503,�k,11.7,��
2024/06/03,16:00,0.485,0.741,0.472,0.911,0.667,0.309,0.540,0.503,�k,11.6,�L
2024/06/03,16:10,0.484,0.743,0.472,0.909,0.666,0.309,0.538,0.502,�k,11.1,�L
2024/06/03,16:20,0.484,0.743,0.473,0.911,0.667,0.310,0.538,0.503,�k,9.8,��
2024/06/03,16:30,0.484,0.744,0.473,0.912,0.666,0.308,0.539,0.501,�k,10.0,��
2024/06/03,16:40,0.485,0.743,0.473,0.911,0.668,0.308,0.539,0.502,�k,8.3,��
2024/06/03,16:50,0.485,0.742,0.474,0.911,0.668,0.308,0.539,0.503,�k,8.6,�L
2024/06/03,17:00,0.484,0.742,0.473,0.910,0.667,0.308,0.538,0.502,�k,9.3,��
2024/06/03,17:10,0.484,0.744,0.474,0.912,0.666,0.308,0.538,0.502,�k�k��,8.5,�L
2024/06/03,17:20,0.484,0.745,0.472,0.910,0.664,0.309,0.537,0.501,�k�k��,9.2,�L
2024/06/03,17:30,0.484,0.740,0.472,0.908,0.666,0.309,0.539,0.501,�k,7.6,�L
2024/06/03,17:40,0.485,0.743,0.472,0.914,0.665,0.308,0.536,0.502,�k,7.3,�L
2024/06/03,17:50,0.485,0.741,0.473,0.913,0.666,0.307,0.537,0.501,�k�k��,7.9,��
2024/06/03,18:00,0.484,0.743,0.473,0.914,0.666,0.310,0.538,0.501,�k,7.8,��
2024/06/03,18:10,0.483,0.742,0.472,0.913,0.665,0.310,0.537,0.500,�k�k��,8.5,��
2024/06/03,18:20,0.487,0.743,0.473,0.913,0.667,0.310,0.537,0.502,�k�k��,7.5,��
2024/06/03,18:30,0.485,0.744,0.472,0.913,0.666,0.310,0.536,0.504,�k�k��,6.3,��
2024/06/03,18:40,0.486,0.745,0.473,0.914,0.665,0.311,0.538,0.503,�k�k��,6.4,��
2024/06/03,18:50,0.486,0.745,0.473,0.914,0.666,0.310,0.538,0.503,�k,6.6,��
2024/06/03,19:00,0.486,0.743,0.475,0.912,0.667,0.308,0.536,0.505,�k,6.2,��
2024/06/03,19:10,0.485,0.746,0.475,0.912,0.667,0.310,0.537,0.504,�k�k��,6.9,��
2024/06/03,19:20,0.486,0.745,0.473,0.913,0.666,0.309,0.538,0.504,�k,6.5,��
2024/06/03,19:30,0.488,0.746,0.475,0.914,0.668,0.309,0.538,0.504,�k�k��,6.5,��
2024/06/03,19:40,0.487,0.746,0.474,0.912,0.666,0.309,0.536,0.504,�k�k��,5.8,��
2024/06/03,19:50,0.486,0.745,0.476,0.913,0.666,0.309,0.537,0.503,�k,5.9,��
2024/06/03,20:00,0.485,0.745,0.474,0.913,0.667,0.309,0.539,0.502,�k�k��,5.9,��
2024/06/03,20:10,0.487,0.745,0.475,0.913,0.669,0.310,0.537,0.503,�k,6.5,��
2024/06/03,20:20,0.486,0.746,0.473,0.911,0.668,0.309,0.539,0.503,�k�k��,6.4,�L
2024/06/03,20:30,0.486,0.745,0.475,0.910,0.668,0.309,0.538,0.502,�k�k��,7.0,�L
2024/06/03,20:40,0.487,0.748,0.474,0.913,0.668,0.309,0.539,0.503,�k�k��,6.5,��
2024/06/03,20:50,0.487,0.747,0.474,0.914,0.669,0.310,0.538,0.503,�k�k��,6.6,��
2024/06/03,21:00,0.486,0.747,0.474,0.913,0.669,0.310,0.538,0.503,�k�k��,6.3,��
2024/06/03,21:10,0.486,0.747,0.475,0.916,0.669,0.310,0.538,0.505,�k�k��,6.0,��
2024/06/03,21:20,0.487,0.746,0.474,0.912,0.669,0.309,0.537,0.503,�k��,6.7,��
2024/06/03,21:30,0.485,0.746,0.474,0.915,0.668,0.310,0.538,0.502,�k�k��,6.8,��
2024/06/03,21:40,0.485,0.746,0.474,0.913,0.669,0.310,0.538,0.502,�k�k��,7.8,��
2024/06/03,21:50,0.485,0.746,0.474,0.913,0.670,0.310,0.540,0.502,�k�k��,7.0,��
2024/06/03,22:00,0.488,0.743,0.473,0.914,0.669,0.311,0.538,0.502,�k�k��,7.1,��
2024/06/03,22:10,0.486,0.746,0.474,0.912,0.668,0.310,0.539,0.502,�k�k��,7.4,��
2024/06/03,22:20,0.485,0.747,0.474,0.911,0.668,0.311,0.539,0.504,�k�k��,7.7,��
2024/06/03,22:30,0.486,0.747,0.473,0.913,0.669,0.311,0.538,0.503,�k�k��,7.6,��
2024/06/03,22:40,0.487,0.745,0.474,0.913,0.669,0.310,0.539,0.503,�k�k��,7.9,��
2024/06/03,22:50,0.485,0.745,0.474,0.913,0.668,0.310,0.539,0.504,�k�k��,8.0,��
2024/06/03,23:00,0.487,0.746,0.474,0.913,0.668,0.310,0.538,0.503,�k�k��,8.2,��
2024/06/03,23:10,0.486,0.748,0.474,0.914,0.667,0.309,0.540,0.503,�k�k��,6.9,��
2024/06/03,23:20,0.486,0.747,0.475,0.912,0.668,0.310,0.540,0.504,�k�k��,6.8,��
2024/06/03,23:30,0.485,0.747,0.474,0.914,0.668,0.310,0.538,0.504,�k�k��,8.4,��
2024/06/03,23:40,0.487,0.746,0.474,0.912,0.670,0.308,0.540,0.502,�k�k��,8.0,��
2024/06/03,23:50,0.487,0.745,0.475,0.913,0.668,0.309,0.538,0.503,�k�k��,7.3,��
